^^
Saratoga-Weather Station Historical Data
Daily Summary for April 06, 2021 Units:  Metric    English   Both
Daily Weekly Monthly Yearly Custom
  High: Low: Average:
Temperature: 5.9 °C -1.5 °C 1.8 °C
Dew Point: -1.5 °C -5.8 °C -3.3 °C
Humidity: 81% 45% 70%
Wind Speed: 25.9km/h 0km/h 9.2km/h
Wind Gust: 33.8km/h - -
Wind- - West
Pressure: 1016.9 hPa 1012.9 hPa -
Precipitation: 0.0 mm    
Historical Graphs
 
 
Tabular Data for April 06, 2021
Time Temperature Dew Point Pressure Wind Wind Speed Wind Gust Humidity Rainfall Rate (Hourly) solar
00:00 0.1 °C -3.8 °C 1016.6 hPa West 4.7 km/h 9.7 km/h 75% 0.0 mm 0 W/m2
00:05 0.1 °C -3.6 °C 1016.6 hPa WNW 4.7 km/h 4.8 km/h 76% 0.0 mm 0 W/m2
00:10 0 °C -3.7 °C 1016.9 hPa WNW 3.2 km/h 9.7 km/h 76% 0.0 mm 0 W/m2
00:15 0 °C -3.5 °C 1016.9 hPa NW 7.9 km/h 12.9 km/h 77% 0.0 mm 0 W/m2
00:21 0 °C -3.5 °C 1016.9 hPa WSW 4.7 km/h 9.7 km/h 77% 0.0 mm 0 W/m2
00:26 0 °C -3.5 °C 1016.9 hPa West 4.7 km/h 14.5 km/h 77% 0.0 mm 0 W/m2
00:31 0 °C -3.5 °C 1016.9 hPa West 6.4 km/h 12.9 km/h 77% 0.0 mm 0 W/m2
00:36 0 °C -3.5 °C 1016.9 hPa WSW 6.4 km/h 16.1 km/h 77% 0.0 mm 0 W/m2
00:41 0 °C -3.4 °C 1016.9 hPa WNW 11.1 km/h 12.9 km/h 78% 0.0 mm 0 W/m2
00:46 -0.1 °C -3.6 °C 1016.9 hPa WNW 4.7 km/h 16.1 km/h 77% 0.0 mm 0 W/m2
00:51 -0.1 °C -3.6 °C 1016.9 hPa West 6.4 km/h 6.4 km/h 77% 0.0 mm 0 W/m2
00:56 -0.1 °C -3.6 °C 1016.9 hPa West 4.7 km/h 11.3 km/h 77% 0.0 mm 0 W/m2
01:01 -0.1 °C -3.6 °C 1016.9 hPa WSW 6.4 km/h 14.5 km/h 77% 0.0 mm 0 W/m2
01:06 0 °C -3.5 °C 1016.9 hPa West 3.2 km/h 11.3 km/h 77% 0.0 mm 0 W/m2
01:11 -0.1 °C -3.6 °C 1016.6 hPa West 4.7 km/h 11.3 km/h 77% 0.0 mm 0 W/m2
01:16 -0.2 °C -3.7 °C 1016.6 hPa West 4.7 km/h 12.9 km/h 77% 0.0 mm 0 W/m2
01:21 -0.3 °C -3.7 °C 1016.9 hPa WNW 11.1 km/h 14.5 km/h 78% 0.0 mm 0 W/m2
01:26 -0.3 °C -3.7 °C 1016.9 hPa West 3.2 km/h 14.5 km/h 78% 0.0 mm 0 W/m2
01:31 -0.3 °C -3.7 °C 1016.9 hPa West 4.7 km/h 11.3 km/h 78% 0.0 mm 0 W/m2
01:36 -0.4 °C -3.6 °C 1016.6 hPa WNW 4.7 km/h 11.3 km/h 79% 0.0 mm 0 W/m2
01:41 -0.4 °C -3.6 °C 1016.9 hPa West 6.4 km/h 14.5 km/h 79% 0.0 mm 0 W/m2
01:46 -0.5 °C -3.5 °C 1016.6 hPa WSW 9.7 km/h 11.3 km/h 80% 0.0 mm 0 W/m2
01:51 -0.5 °C -3.5 °C 1016.6 hPa WNW 3.2 km/h 9.7 km/h 80% 0.0 mm 0 W/m2
01:56 -0.6 °C -3.6 °C 1016.6 hPa West 1.4 km/h 4.8 km/h 80% 0.0 mm 0 W/m2
02:01 -0.6 °C -3.6 °C 1016.6 hPa West 3.2 km/h 4.8 km/h 80% 0.0 mm 0 W/m2
02:06 -0.6 °C -3.6 °C 1016.6 hPa WNW 3.2 km/h 9.7 km/h 80% 0.0 mm 0 W/m2
02:11 -0.6 °C -3.6 °C 1016.6 hPa WNW 3.2 km/h 12.9 km/h 80% 0.0 mm 0 W/m2
02:16 -0.6 °C -3.6 °C 1016.3 hPa West 3.2 km/h 8 km/h 80% 0.0 mm 0 W/m2
02:21 -0.6 °C -3.6 °C 1016.3 hPa NW 3.2 km/h 9.7 km/h 80% 0.0 mm 0 W/m2
02:26 -0.6 °C -3.6 °C 1016.3 hPa West 16.3 km/h 17.7 km/h 80% 0.0 mm 0 W/m2
02:31 -0.6 °C -3.6 °C 1016.3 hPa WNW 11.1 km/h 17.7 km/h 80% 0.0 mm 0 W/m2
02:36 -0.7 °C -3.7 °C 1016.3 hPa WNW 11.1 km/h 17.7 km/h 80% 0.0 mm 0 W/m2
02:41 -0.7 °C -3.7 °C 1016.3 hPa West 9.7 km/h 16.1 km/h 80% 0.0 mm 0 W/m2
02:46 -0.6 °C -3.8 °C 1016.3 hPa WSW 14.3 km/h 17.7 km/h 79% 0.0 mm 0 W/m2
02:51 -0.5 °C -3.9 °C 1016.3 hPa WSW 13 km/h 16.1 km/h 78% 0.0 mm 0 W/m2
02:56 -0.5 °C -3.9 °C 1016.3 hPa WNW 9.7 km/h 12.9 km/h 78% 0.0 mm 0 W/m2
03:01 -0.6 °C -4 °C 1016.3 hPa West 13 km/h 14.5 km/h 78% 0.0 mm 0 W/m2
03:06 -0.6 °C -4 °C 1016.3 hPa WSW 13 km/h 17.7 km/h 78% 0.0 mm 0 W/m2
03:11 -0.5 °C -4 °C 1016.3 hPa WSW 6.4 km/h 19.3 km/h 77% 0.0 mm 0 W/m2
03:16 -0.6 °C -4 °C 1016.3 hPa West 16.3 km/h 16.1 km/h 78% 0.0 mm 0 W/m2
03:21 -0.7 °C -4.1 °C 1015.9 hPa West 6.4 km/h 14.5 km/h 78% 0.0 mm 0 W/m2
03:26 -0.7 °C -4.1 °C 1015.9 hPa NW 13 km/h 16.1 km/h 78% 0.0 mm 0 W/m2
03:31 -0.8 °C -4.2 °C 1015.9 hPa WSW 1.4 km/h 4.8 km/h 78% 0.0 mm 0 W/m2
03:36 -0.8 °C -4.2 °C 1016.3 hPa West 1.4 km/h 17.7 km/h 78% 0.0 mm 0 W/m2
03:41 -0.9 °C -4.3 °C 1015.9 hPa West 13 km/h 16.1 km/h 78% 0.0 mm 0 W/m2
03:46 -0.9 °C -4.3 °C 1015.9 hPa SW 9.7 km/h 20.9 km/h 78% 0.0 mm 0 W/m2
03:51 -0.9 °C -4.3 °C 1015.9 hPa WNW 3.2 km/h 12.9 km/h 78% 0.0 mm 0 W/m2
03:56 -0.9 °C -4.3 °C 1015.9 hPa West 16.3 km/h 16.1 km/h 78% 0.0 mm 0 W/m2
04:01 -1 °C -4.3 °C 1015.9 hPa West 9.7 km/h 12.9 km/h 78% 0.0 mm 0 W/m2
04:06 -1.1 °C -4.3 °C 1015.9 hPa SW 7.9 km/h 14.5 km/h 79% 0.0 mm 0 W/m2
04:11 -1.1 °C -4.4 °C 1015.9 hPa WNW 4.7 km/h 11.3 km/h 78% 0.0 mm 0 W/m2
04:16 -1.1 °C -4.4 °C 1015.9 hPa WNW 9.7 km/h 17.7 km/h 78% 0.0 mm 0 W/m2
04:21 -1.1 °C -4.4 °C 1015.9 hPa SW 17.7 km/h 17.7 km/h 78% 0.0 mm 0 W/m2
04:26 -1.1 °C -4.4 °C 1015.9 hPa WNW 3.2 km/h 19.3 km/h 78% 0.0 mm 0 W/m2
04:31 -1.1 °C -4.4 °C 1015.9 hPa WNW 11.1 km/h 20.9 km/h 78% 0.0 mm 0 W/m2
04:36 -1.1 °C -4.4 °C 1015.9 hPa WSW 14.3 km/h 19.3 km/h 78% 0.0 mm 0 W/m2
04:41 -1.1 °C -4.4 °C 1015.9 hPa WNW 4.7 km/h 12.9 km/h 78% 0.0 mm 0 W/m2
04:46 -1.1 °C -4.4 °C 1015.9 hPa South 7.9 km/h 11.3 km/h 78% 0.0 mm 0 W/m2
04:51 -1.1 °C -4.4 °C 1015.9 hPa WSW 6.4 km/h 17.7 km/h 78% 0.0 mm 0 W/m2
04:56 -1.1 °C -4.4 °C 1015.9 hPa WNW 14.3 km/h 14.5 km/h 78% 0.0 mm 0 W/m2
05:01 -1.2 °C -4.5 °C 1015.9 hPa WNW 7.9 km/h 16.1 km/h 78% 0.0 mm 0 W/m2
05:06 -1.2 °C -4.5 °C 1015.9 hPa WSW 13 km/h 16.1 km/h 78% 0.0 mm 0 W/m2
05:11 -1.2 °C -4.5 °C 1015.9 hPa WSW 13 km/h 12.9 km/h 78% 0.0 mm 0 W/m2
05:16 -1.2 °C -4.5 °C 1015.9 hPa NW 4.7 km/h 14.5 km/h 78% 0.0 mm 0 W/m2
05:21 -1.2 °C -4.4 °C 1015.9 hPa WSW 9.7 km/h 9.7 km/h 79% 0.0 mm 0 W/m2
05:26 -1.2 °C -4.4 °C 1015.9 hPa NW 6.4 km/h 11.3 km/h 79% 0.0 mm 0 W/m2
05:31 -1.3 °C -4.6 °C 1015.6 hPa WNW 7.9 km/h 12.9 km/h 78% 0.0 mm 0 W/m2
05:36 -1.3 °C -4.5 °C 1015.6 hPa West 3.2 km/h 11.3 km/h 79% 0.0 mm 0 W/m2
05:41 -1.3 °C -4.5 °C 1015.9 hPa West 4.7 km/h 14.5 km/h 79% 0.0 mm 0 W/m2
05:46 -1.2 °C -4.4 °C 1015.9 hPa West 4.7 km/h 6.4 km/h 79% 0.0 mm 0 W/m2
05:51 -1.2 °C -4.4 °C 1015.6 hPa WNW 3.2 km/h 6.4 km/h 79% 0.0 mm 0 W/m2
05:56 -1.1 °C -4.3 °C 1015.6 hPa WSW 4.7 km/h 6.4 km/h 79% 0.0 mm 0 W/m2
06:01 -1.1 °C -4.3 °C 1015.6 hPa NW 3.2 km/h 8 km/h 79% 0.0 mm 0 W/m2
06:06 -1 °C -4.2 °C 1015.6 hPa West 3.2 km/h 11.3 km/h 79% 0.0 mm 0 W/m2
06:11 -1.1 °C -4.3 °C 1015.6 hPa West 4.7 km/h 6.4 km/h 79% 0.0 mm 0 W/m2
06:16 -1.1 °C -4.3 °C 1015.6 hPa WSW 6.4 km/h 11.3 km/h 79% 0.0 mm 0 W/m2
06:21 -1.2 °C -4.4 °C 1015.6 hPa West 6.4 km/h 6.4 km/h 79% 0.0 mm 0 W/m2
06:26 -1.2 °C -4.4 °C 1015.6 hPa WNW 6.4 km/h 6.4 km/h 79% 0.0 mm 0 W/m2
06:31 -1.2 °C -4.4 °C 1015.6 hPa WSW 6.4 km/h 6.4 km/h 79% 0.0 mm 0 W/m2
06:36 -1.2 °C -4.4 °C 1015.6 hPa Calm   3.2 km/h 79% 0.0 mm 0 W/m2
06:41 -1.3 °C -4.5 °C 1015.6 hPa NW 6.4 km/h 6.4 km/h 79% 0.0 mm 0 W/m2
06:46 -1.3 °C -4.5 °C 1015.6 hPa West 1.4 km/h 11.3 km/h 79% 0.0 mm 0 W/m2
06:51 -1.3 °C -4.5 °C 1015.6 hPa West 11.1 km/h 11.3 km/h 79% 0.0 mm 0 W/m2
06:56 -1.4 °C -4.6 °C 1015.2 hPa WNW 6.4 km/h 12.9 km/h 79% 0.0 mm 0 W/m2
07:01 -1.5 °C -4.7 °C 1015.2 hPa West 13 km/h 14.5 km/h 79% 0.0 mm 0 W/m2
07:06 -1.5 °C -4.5 °C 1015.2 hPa WNW 6.4 km/h 11.3 km/h 80% 0.0 mm 5 W/m2
07:11 -1.4 °C -4.4 °C 1015.2 hPa WNW 3.2 km/h 11.3 km/h 80% 0.0 mm 7 W/m2
07:16 -1.4 °C -4.4 °C 1015.2 hPa NW 4.7 km/h 9.7 km/h 80% 0.0 mm 9 W/m2
07:21 -1.3 °C -4.1 °C 1015.6 hPa WNW 6.4 km/h 11.3 km/h 81% 0.0 mm 11 W/m2
07:26 -1.1 °C -3.9 °C 1015.6 hPa West 6.4 km/h 11.3 km/h 81% 0.0 mm 14 W/m2
07:31 -0.9 °C -3.9 °C 1015.6 hPa NW 1.4 km/h 6.4 km/h 80% 0.0 mm 16 W/m2
07:36 -0.9 °C -3.9 °C 1015.6 hPa WNW 11.3 km/h 11.3 km/h 80% 0.0 mm 18 W/m2
07:41 -0.8 °C -3.7 °C 1015.6 hPa SW 6.4 km/h 12.9 km/h 81% 0.0 mm 21 W/m2
07:46 -0.7 °C -3.7 °C 1015.6 hPa NNW 4.7 km/h 6.4 km/h 80% 0.0 mm 23 W/m2
07:51 -0.6 °C -3.6 °C 1015.6 hPa West 3.2 km/h 16.1 km/h 80% 0.0 mm 25 W/m2
07:56 -0.4 °C -3.4 °C 1015.6 hPa WNW 6.4 km/h 11.3 km/h 80% 0.0 mm 28 W/m2
08:01 -0.5 °C -3.7 °C 1015.6 hPa West 9.7 km/h 17.7 km/h 79% 0.0 mm 30 W/m2
08:06 -0.5 °C -3.5 °C 1015.6 hPa West 11.1 km/h 11.3 km/h 80% 0.0 mm 30 W/m2
08:11 -0.4 °C -3.4 °C 1015.6 hPa WSW 9.7 km/h 9.7 km/h 80% 0.0 mm 70 W/m2
08:16 -0.3 °C -3.3 °C 1015.6 hPa WSW 11.1 km/h 12.9 km/h 80% 0.0 mm 95 W/m2
08:21 -0.2 °C -3.2 °C 1015.6 hPa West 6.4 km/h 6.4 km/h 80% 0.0 mm 109 W/m2
08:26 -0.2 °C -3.2 °C 1015.6 hPa WNW 4.7 km/h 6.4 km/h 80% 0.0 mm 130 W/m2
08:31 -0.1 °C -3.1 °C 1015.6 hPa West 6.4 km/h 12.9 km/h 80% 0.0 mm 91 W/m2
08:36 0 °C -3 °C 1015.6 hPa West 3.2 km/h 12.9 km/h 80% 0.0 mm 155 W/m2
08:41 0 °C -3 °C 1015.6 hPa WNW 6.4 km/h 6.4 km/h 80% 0.0 mm 42 W/m2
08:46 0.1 °C -2.9 °C 1015.6 hPa West 13 km/h 12.9 km/h 80% 0.0 mm 199 W/m2
08:51 0.2 °C -2.8 °C 1015.6 hPa West 11.1 km/h 11.3 km/h 80% 0.0 mm 176 W/m2
08:56 0.3 °C -2.7 °C 1015.6 hPa NW 7.9 km/h 8 km/h 80% 0.0 mm 230 W/m2
09:01 0.6 °C -2.5 °C 1015.6 hPa WNW 6.4 km/h 11.3 km/h 80% 0.0 mm 248 W/m2
09:06 0.7 °C -2.4 °C 1015.6 hPa WSW 19.5 km/h 19.3 km/h 80% 0.0 mm 130 W/m2
09:11 0.8 °C -2.3 °C 1015.6 hPa West 6.4 km/h 20.9 km/h 80% 0.0 mm 49 W/m2
09:16 0.9 °C -2.3 °C 1015.6 hPa WNW 9.7 km/h 20.9 km/h 79% 0.0 mm 285 W/m2
09:21 1.1 °C -2.1 °C 1015.6 hPa WSW 14.3 km/h 17.7 km/h 79% 0.0 mm 308 W/m2
09:26 1.2 °C -2.2 °C 1015.6 hPa West 13 km/h 24.1 km/h 78% 0.0 mm 322 W/m2
09:31 1.3 °C -1.9 °C 1015.6 hPa West 17.7 km/h 25.7 km/h 79% 0.0 mm 339 W/m2
09:36 1.4 °C -2 °C 1015.6 hPa NW 11.1 km/h 17.7 km/h 78% 0.0 mm 366 W/m2
09:41 1.6 °C -2 °C 1015.6 hPa West 13 km/h 25.7 km/h 77% 0.0 mm 397 W/m2
09:46 1.8 °C -1.8 °C 1015.6 hPa West 9.7 km/h 14.5 km/h 77% 0.0 mm 445 W/m2
09:51 2.1 °C -1.7 °C 1015.6 hPa West 13 km/h 17.7 km/h 76% 0.0 mm 485 W/m2
09:56 2.3 °C -1.7 °C 1015.6 hPa WSW 3.2 km/h 19.3 km/h 75% 0.0 mm 401 W/m2
10:01 2.3 °C -1.9 °C 1015.9 hPa West 9.7 km/h 19.3 km/h 74% 0.0 mm 322 W/m2
10:06 2.3 °C -1.9 °C 1015.6 hPa West 9.7 km/h 14.5 km/h 74% 0.0 mm 446 W/m2
10:11 2.4 °C -1.8 °C 1015.6 hPa WNW 11.1 km/h 14.5 km/h 74% 0.0 mm 329 W/m2
10:16 2.4 °C -1.9 °C 1015.6 hPa West 4.7 km/h 19.3 km/h 73% 0.0 mm 306 W/m2
10:21 2.6 °C -1.8 °C 1015.6 hPa West 16.3 km/h 20.9 km/h 73% 0.0 mm 339 W/m2
10:27 2.7 °C -2 °C 1015.6 hPa West 4.7 km/h 22.5 km/h 71% 0.0 mm 355 W/m2
10:32 2.8 °C -1.7 °C 1015.6 hPa NW 14.3 km/h 16.1 km/h 72% 0.0 mm 355 W/m2
10:37 2.9 °C -1.8 °C 1015.6 hPa WSW 9.7 km/h 16.1 km/h 71% 0.0 mm 339 W/m2
10:42 3 °C -1.9 °C 1015.9 hPa West 22.7 km/h 22.5 km/h 70% 0.0 mm 473 W/m2
10:47 2.9 °C -2.2 °C 1015.6 hPa West 19.5 km/h 19.3 km/h 69% 0.0 mm 287 W/m2
10:52 2.9 °C -2.4 °C 1015.9 hPa WNW 14.3 km/h 17.7 km/h 68% 0.0 mm 297 W/m2
10:57 3 °C -2.5 °C 1015.9 hPa NW 13 km/h 20.9 km/h 67% 0.0 mm 373 W/m2
11:02 3.1 °C -2.2 °C 1015.6 hPa SW 11.1 km/h 24.1 km/h 68% 0.0 mm 366 W/m2
11:07 3.1 °C -2.6 °C 1015.9 hPa WNW 16.3 km/h 22.5 km/h 66% 0.0 mm 294 W/m2
11:12 3.1 °C -2.6 °C 1015.6 hPa WNW 13 km/h 24.1 km/h 66% 0.0 mm 499 W/m2
11:17 3.6 °C -2 °C 1015.9 hPa NW 4.7 km/h 12.9 km/h 67% 0.0 mm 557 W/m2
11:22 3.6 °C -2.8 °C 1015.9 hPa West 24.1 km/h 24.1 km/h 63% 0.0 mm 621 W/m2
11:27 3.6 °C -2.8 °C 1015.9 hPa West 6.4 km/h 19.3 km/h 63% 0.0 mm 606 W/m2
11:32 3.8 °C -2.6 °C 1015.6 hPa WNW 4.7 km/h 14.5 km/h 63% 0.0 mm 246 W/m2
11:37 3.8 °C -2.6 °C 1015.6 hPa WSW 19.5 km/h 20.9 km/h 63% 0.0 mm 297 W/m2
11:42 3.9 °C -2.7 °C 1015.6 hPa WNW 6.4 km/h 16.1 km/h 62% 0.0 mm 294 W/m2
11:47 3.9 °C -3.2 °C 1015.6 hPa WNW 22.7 km/h 22.5 km/h 60% 0.0 mm 385 W/m2
11:52 3.8 °C -3 °C 1015.6 hPa WSW 11.1 km/h 14.5 km/h 61% 0.0 mm 279 W/m2
11:57 3.8 °C -3.3 °C 1015.6 hPa NW 7.9 km/h 16.1 km/h 60% 0.0 mm 534 W/m2
12:02 4 °C -2.8 °C 1015.6 hPa WNW 7.9 km/h 16.1 km/h 61% 0.0 mm 221 W/m2
12:07 4.1 °C -3 °C 1015.6 hPa West 20.9 km/h 20.9 km/h 60% 0.0 mm 169 W/m2
12:12 3.9 °C -3.2 °C 1015.6 hPa West 11.1 km/h 17.7 km/h 60% 0.0 mm 123 W/m2
12:17 4.1 °C -2.7 °C 1015.2 hPa West 13 km/h 17.7 km/h 61% 0.0 mm 793 W/m2
12:22 4.4 °C -3.4 °C 1015.2 hPa West 14.3 km/h 30.6 km/h 57% 0.0 mm 833 W/m2
12:27 4.3 °C -3 °C 1015.2 hPa WNW 11.1 km/h 11.3 km/h 59% 0.0 mm 239 W/m2
12:32 4.6 °C -3.2 °C 1014.9 hPa West 14.3 km/h 30.6 km/h 57% 0.0 mm 828 W/m2
12:37 4.7 °C -3.6 °C 1015.2 hPa West 24.1 km/h 24.1 km/h 55% 0.0 mm 809 W/m2
12:42 4.8 °C -3.5 °C 1014.9 hPa North 9.7 km/h 17.7 km/h 55% 0.0 mm 809 W/m2
12:47 5 °C -3.3 °C 1014.9 hPa NW 4.7 km/h 14.5 km/h 55% 0.0 mm 378 W/m2
12:52 5.6 °C -2 °C 1014.6 hPa WNW 16.3 km/h 19.3 km/h 58% 0.0 mm 251 W/m2
12:57 5.6 °C -2.5 °C 1014.6 hPa WNW 17.7 km/h 17.7 km/h 56% 0.0 mm 325 W/m2
13:02 5.5 °C -2.6 °C 1014.6 hPa WNW 13 km/h 14.5 km/h 56% 0.0 mm 420 W/m2
13:07 5.1 °C -4.2 °C 1014.6 hPa NNW 7.9 km/h 20.9 km/h 51% 0.0 mm 214 W/m2
13:12 4.8 °C -4.5 °C 1014.6 hPa WNW 11.1 km/h 20.9 km/h 51% 0.0 mm 160 W/m2
13:17 4.8 °C -3.7 °C 1014.6 hPa West 14.3 km/h 20.9 km/h 54% 0.0 mm 311 W/m2
13:22 5.2 °C -3.4 °C 1014.6 hPa SW 9.7 km/h 27.4 km/h 54% 0.0 mm 1044 W/m2
13:27 4.5 °C -3 °C 1014.9 hPa NW 16.3 km/h 17.7 km/h 58% 0.0 mm 135 W/m2
13:32 3.7 °C -4 °C 1014.6 hPa West 13 km/h 19.3 km/h 57% 0.0 mm 169 W/m2
13:37 3.4 °C -4.5 °C 1014.6 hPa West 16.3 km/h 17.7 km/h 56% 0.0 mm 311 W/m2
13:42 3.5 °C -4.2 °C 1014.6 hPa West 3.2 km/h 11.3 km/h 57% 0.0 mm 288 W/m2
13:47 4.2 °C -3.3 °C 1014.6 hPa West 11.1 km/h 14.5 km/h 58% 0.0 mm 933 W/m2
13:52 4.9 °C -2.7 °C 1014.2 hPa West 11.1 km/h 22.5 km/h 58% 0.0 mm 383 W/m2
13:57 5 °C -3.1 °C 1014.2 hPa WNW 6.4 km/h 20.9 km/h 56% 0.0 mm 199 W/m2
14:02 4.8 °C -4.2 °C 1014.2 hPa West 25.9 km/h 32.2 km/h 52% 0.0 mm 179 W/m2
14:07 4.9 °C -3.9 °C 1014.2 hPa West 11.1 km/h 20.9 km/h 53% 0.0 mm 904 W/m2
14:12 5.4 °C -3.4 °C 1014.2 hPa WNW 7.9 km/h 32.2 km/h 53% 0.0 mm 888 W/m2
14:17 5.9 °C -3.5 °C 1014.2 hPa WNW 20.9 km/h 24.1 km/h 51% 0.0 mm 213 W/m2
14:22 5.2 °C -4.4 °C 1014.2 hPa WNW 17.7 km/h 29 km/h 50% 0.0 mm 193 W/m2
14:27 4.7 °C -5.7 °C 1014.2 hPa West 14.3 km/h 16.1 km/h 47% 0.0 mm 193 W/m2
14:32 4.8 °C -5.8 °C 1013.9 hPa North 17.7 km/h 17.7 km/h 46% 0.0 mm 816 W/m2
14:37 5.2 °C -5.5 °C 1013.9 hPa WNW 1.4 km/h 14.5 km/h 46% 0.0 mm 826 W/m2
14:42 5.7 °C -5.3 °C 1013.5 hPa West 13 km/h 16.1 km/h 45% 0.0 mm 854 W/m2
14:47 5.6 °C -4.3 °C 1013.9 hPa WNW 13 km/h 22.5 km/h 49% 0.0 mm 230 W/m2
14:52 5.3 °C -4.3 °C 1013.9 hPa NW 17.7 km/h 22.5 km/h 50% 0.0 mm 185 W/m2
14:57 5.1 °C -4 °C 1013.5 hPa NW 9.7 km/h 27.4 km/h 52% 0.0 mm 469 W/m2
15:02 5 °C -3.5 °C 1013.9 hPa WSW 13 km/h 19.3 km/h 54% 0.0 mm 308 W/m2
15:07 4.7 °C -4.6 °C 1013.9 hPa WSW 11.1 km/h 33.8 km/h 51% 0.0 mm 708 W/m2
15:12 4.7 °C -4.1 °C 1013.9 hPa West 17.7 km/h 22.5 km/h 53% 0.0 mm 663 W/m2
15:17 4.6 °C -4.9 °C 1013.9 hPa WSW 11.1 km/h 33.8 km/h 50% 0.0 mm 290 W/m2
15:22 4.6 °C -4.9 °C 1013.9 hPa West 13 km/h 19.3 km/h 50% 0.0 mm 559 W/m2
15:27 4.8 °C -3.5 °C 1013.9 hPa WNW 22.7 km/h 25.7 km/h 55% 0.0 mm 557 W/m2
15:32 5.1 °C -2.3 °C 1013.9 hPa WNW 14.3 km/h 25.7 km/h 59% 0.0 mm 606 W/m2
15:37 4.9 °C -2.4 °C 1013.9 hPa West 9.7 km/h 20.9 km/h 59% 0.0 mm 295 W/m2
15:42 4.7 °C -1.5 °C 1013.9 hPa West 11.1 km/h 25.7 km/h 64% 0.0 mm 272 W/m2
15:47 4.3 °C -1.5 °C 1013.9 hPa West 11.1 km/h 19.3 km/h 66% 0.0 mm 297 W/m2
15:52 4.3 °C -1.5 °C 1013.9 hPa NNE 14.3 km/h 22.5 km/h 66% 0.0 mm 577 W/m2
15:57 4.3 °C -1.7 °C 1013.9 hPa North 6.4 km/h 12.9 km/h 65% 0.0 mm 445 W/m2
16:02 4.3 °C -1.5 °C 1013.9 hPa West 13 km/h 16.1 km/h 66% 0.0 mm 663 W/m2
16:07 4.6 °C -1.6 °C 1013.5 hPa West 16.3 km/h 30.6 km/h 64% 0.0 mm 698 W/m2
16:12 4.6 °C -1.6 °C 1013.5 hPa NW 7.9 km/h 20.9 km/h 64% 0.0 mm 682 W/m2
16:17 4.8 °C -2.1 °C 1013.5 hPa WSW 25.7 km/h 25.7 km/h 61% 0.0 mm 656 W/m2
16:22 4.8 °C -2.1 °C 1013.2 hPa WNW 14.3 km/h 19.3 km/h 61% 0.0 mm 680 W/m2
16:27 5.2 °C -1.7 °C 1013.2 hPa WNW 16.3 km/h 27.4 km/h 61% 0.0 mm 613 W/m2
16:32 5 °C -2.3 °C 1013.2 hPa West 14.3 km/h 27.4 km/h 59% 0.0 mm 606 W/m2
16:37 4.9 °C -2.4 °C 1013.2 hPa West 9.7 km/h 16.1 km/h 59% 0.0 mm 589 W/m2
16:42 5.1 °C -2.3 °C 1012.9 hPa NNW 7.9 km/h 27.4 km/h 59% 0.0 mm 566 W/m2
16:47 5.2 °C -2.2 °C 1013.2 hPa NNW 9.7 km/h 16.1 km/h 59% 0.0 mm 531 W/m2
16:52 5.3 °C -3 °C 1012.9 hPa NW 4.7 km/h 16.1 km/h 55% 0.0 mm 547 W/m2
16:57 5.5 °C -3.3 °C 1012.9 hPa West 16.3 km/h 20.9 km/h 53% 0.0 mm 536 W/m2
17:02 5.5 °C -3.8 °C 1012.9 hPa WSW 19.5 km/h 22.5 km/h 51% 0.0 mm 519 W/m2
17:07 5.5 °C -4.1 °C 1012.9 hPa West 13 km/h 20.9 km/h 50% 0.0 mm 512 W/m2
17:12 5.6 °C -4 °C 1012.9 hPa West 16.3 km/h 25.7 km/h 50% 0.0 mm 520 W/m2
17:17 5.4 °C -3.9 °C 1012.9 hPa WNW 17.7 km/h 24.1 km/h 51% 0.0 mm 83 W/m2
17:22 4.6 °C -2.7 °C 1013.5 hPa WNW 13 km/h 33.8 km/h 59% 0.0 mm 93 W/m2
17:27 3.3 °C -1.6 °C 1013.5 hPa WNW 25.9 km/h 33.8 km/h 70% 0.0 mm 60 W/m2
17:32 2.2 °C -1.6 °C 1013.5 hPa WNW 19.5 km/h 32.2 km/h 76% 0.0 mm 18 W/m2
17:37 1.5 °C -1.7 °C 1013.5 hPa NW 13 km/h 24.1 km/h 79% 0.0 mm 40 W/m2
17:42 1.3 °C -2.1 °C 1013.2 hPa NW 4.7 km/h 11.3 km/h 78% 0.0 mm 192 W/m2
17:47 1.8 °C -2.3 °C 1013.2 hPa WSW 11.1 km/h 17.7 km/h 74% 0.0 mm 503 W/m2
17:52 2.6 °C -1.6 °C 1013.2 hPa NW 3.2 km/h 12.9 km/h 74% 0.0 mm 490 W/m2
17:57 3.1 °C -1.8 °C 1013.2 hPa NW 4.7 km/h 17.7 km/h 70% 0.0 mm 417 W/m2
18:02 3.4 °C -1.9 °C 1013.2 hPa WNW 6.4 km/h 14.5 km/h 68% 0.0 mm 79 W/m2
18:07 3.3 °C -2 °C 1013.2 hPa West 13 km/h 14.5 km/h 68% 0.0 mm 91 W/m2
18:12 3.3 °C -2 °C 1013.2 hPa WSW 6.4 km/h 17.7 km/h 68% 0.0 mm 165 W/m2
18:17 3.6 °C -2 °C 1013.2 hPa West 9.7 km/h 17.7 km/h 67% 0.0 mm 345 W/m2
18:22 3.9 °C -1.9 °C 1012.9 hPa West 16.3 km/h 19.3 km/h 66% 0.0 mm 387 W/m2
18:27 4 °C -1.8 °C 1012.9 hPa NNW 7.9 km/h 16.1 km/h 66% 0.0 mm 322 W/m2
18:32 4.2 °C -1.6 °C 1012.9 hPa WNW 6.4 km/h 6.4 km/h 66% 0.0 mm 63 W/m2
18:37 4 °C -1.8 °C 1012.9 hPa West 4.7 km/h 9.7 km/h 66% 0.0 mm 49 W/m2
18:42 3.7 °C -2.1 °C 1012.9 hPa WNW 6.4 km/h 6.4 km/h 66% 0.0 mm 44 W/m2
18:47 3.6 °C -2.2 °C 1013.2 hPa WNW 3.2 km/h 11.3 km/h 66% 0.0 mm 72 W/m2
18:52 3.5 °C -2.3 °C 1012.9 hPa WNW 6.4 km/h 12.9 km/h 66% 0.0 mm 163 W/m2
18:57 3.5 °C -2.5 °C 1012.9 hPa WNW 13 km/h 12.9 km/h 65% 0.0 mm 213 W/m2
19:02 3.6 °C -2.8 °C 1012.9 hPa WNW 6.4 km/h 16.1 km/h 63% 0.0 mm 149 W/m2
19:07 3.7 °C -3.3 °C 1012.9 hPa North 4.7 km/h 16.1 km/h 60% 0.0 mm 176 W/m2
19:12 3.8 °C -3.5 °C 1012.9 hPa West 17.7 km/h 19.3 km/h 59% 0.0 mm 162 W/m2
19:17 3.7 °C -4 °C 1012.9 hPa NW 9.7 km/h 16.1 km/h 57% 0.0 mm 88 W/m2
19:22 3.7 °C -4 °C 1012.9 hPa NW 13 km/h 17.7 km/h 57% 0.0 mm 65 W/m2
19:27 3.5 °C -4 °C 1012.9 hPa WSW 11.1 km/h 16.1 km/h 58% 0.0 mm 60 W/m2
19:32 3.4 °C -4.1 °C 1012.9 hPa West 3.2 km/h 11.3 km/h 58% 0.0 mm 53 W/m2
19:37 3.3 °C -3.9 °C 1012.9 hPa WNW 9.7 km/h 16.1 km/h 59% 0.0 mm 46 W/m2
19:42 3.3 °C -3.9 °C 1012.9 hPa WNW 4.7 km/h 11.3 km/h 59% 0.0 mm 46 W/m2
19:47 3.2 °C -3.8 °C 1012.9 hPa WSW 6.4 km/h 14.5 km/h 60% 0.0 mm 37 W/m2
19:52 3.2 °C -3.8 °C 1012.9 hPa WNW 3.2 km/h 6.4 km/h 60% 0.0 mm 30 W/m2
19:57 3.1 °C -3.9 °C 1012.9 hPa West 4.7 km/h 14.5 km/h 60% 0.0 mm 16 W/m2
20:02 3.1 °C -3.9 °C 1012.9 hPa WNW 6.4 km/h 9.7 km/h 60% 0.0 mm 12 W/m2
20:07 3.1 °C -3.9 °C 1012.9 hPa WNW 13 km/h 14.5 km/h 60% 0.0 mm 9 W/m2
20:12 3.1 °C -4.1 °C 1012.9 hPa WNW 6.4 km/h 12.9 km/h 59% 0.0 mm 5 W/m2
20:17 3.1 °C -4.4 °C 1012.9 hPa WNW 3.2 km/h 12.9 km/h 58% 0.0 mm 0 W/m2
20:22 3.1 °C -4.4 °C 1013.2 hPa SW 6.4 km/h 11.3 km/h 58% 0.0 mm 0 W/m2
20:27 2.9 °C -3.9 °C 1013.2 hPa West 6.4 km/h 8 km/h 61% 0.0 mm 0 W/m2
20:32 2.7 °C -3.6 °C 1013.2 hPa West 6.4 km/h 8 km/h 63% 0.0 mm 0 W/m2
20:37 2.6 °C -3.3 °C 1013.2 hPa West 1.4 km/h 4.8 km/h 65% 0.0 mm 0 W/m2
20:42 2.4 °C -3.3 °C 1013.2 hPa West 4.7 km/h 6.4 km/h 66% 0.0 mm 0 W/m2
20:47 2.3 °C -3.4 °C 1013.5 hPa West 3.2 km/h 6.4 km/h 66% 0.0 mm 0 W/m2
20:52 2.3 °C -3.4 °C 1013.5 hPa WNW 4.7 km/h 6.4 km/h 66% 0.0 mm 0 W/m2
20:57 2.4 °C -3.3 °C 1013.5 hPa NNE 4.7 km/h 8 km/h 66% 0.0 mm 0 W/m2
21:02 2.4 °C -2.9 °C 1013.9 hPa WSW 11.1 km/h 14.5 km/h 68% 0.0 mm 0 W/m2
21:07 2.3 °C -2.2 °C 1013.9 hPa WNW 7.9 km/h 20.9 km/h 72% 0.0 mm 0 W/m2
21:12 2.1 °C -2 °C 1013.9 hPa WSW 4.7 km/h 9.7 km/h 74% 0.0 mm 0 W/m2
21:17 1.9 °C -2.1 °C 1014.2 hPa NW 6.4 km/h 20.9 km/h 75% 0.0 mm 0 W/m2
21:22 1.8 °C -2.3 °C 1013.9 hPa NW 4.7 km/h 8 km/h 74% 0.0 mm 0 W/m2
21:27 1.7 °C -2.3 °C 1013.9 hPa West 6.4 km/h 20.9 km/h 75% 0.0 mm 0 W/m2
21:32 1.5 °C -2.4 °C 1013.9 hPa NNW 1.4 km/h 8 km/h 75% 0.0 mm 0 W/m2
21:37 1.4 °C -2.5 °C 1013.9 hPa West 3.2 km/h 20.9 km/h 75% 0.0 mm 0 W/m2
21:42 1.3 °C -2.6 °C 1013.9 hPa West 14.3 km/h 17.7 km/h 75% 0.0 mm 0 W/m2
21:47 1.3 °C -2.8 °C 1013.9 hPa NNW 1.4 km/h 12.9 km/h 74% 0.0 mm 0 W/m2
21:52 1.3 °C -2.8 °C 1013.9 hPa WSW 4.7 km/h 9.7 km/h 74% 0.0 mm 0 W/m2
21:57 1.3 °C -2.8 °C 1014.2 hPa NW 6.4 km/h 14.5 km/h 74% 0.0 mm 0 W/m2
22:02 1.3 °C -2.8 °C 1014.2 hPa NW 4.7 km/h 17.7 km/h 74% 0.0 mm 0 W/m2
22:07 1.3 °C -3 °C 1014.2 hPa WSW 6.4 km/h 16.1 km/h 73% 0.0 mm 0 W/m2
22:12 1.3 °C -3 °C 1014.2 hPa NW 3.2 km/h 14.5 km/h 73% 0.0 mm 0 W/m2
22:17 1.3 °C -3 °C 1014.2 hPa West 4.7 km/h 12.9 km/h 73% 0.0 mm 0 W/m2
22:22 1.3 °C -3 °C 1014.2 hPa NW 14.3 km/h 14.5 km/h 73% 0.0 mm 0 W/m2
22:27 1.3 °C -3 °C 1014.2 hPa WNW 14.3 km/h 14.5 km/h 73% 0.0 mm 0 W/m2
22:32 1.4 °C -2.9 °C 1014.2 hPa NW 4.7 km/h 12.9 km/h 73% 0.0 mm 0 W/m2
22:37 1.4 °C -3.1 °C 1014.2 hPa West 3.2 km/h 11.3 km/h 72% 0.0 mm 0 W/m2
22:42 1.4 °C -3.1 °C 1014.2 hPa WSW 6.4 km/h 9.7 km/h 72% 0.0 mm 0 W/m2
22:47 1.4 °C -3.1 °C 1014.2 hPa West 9.7 km/h 20.9 km/h 72% 0.0 mm 0 W/m2
22:52 1.3 °C -3.2 °C 1014.2 hPa NW 1.4 km/h 12.9 km/h 72% 0.0 mm 0 W/m2
22:57 1.3 °C -3 °C 1014.2 hPa WSW 14.3 km/h 14.5 km/h 73% 0.0 mm 0 W/m2
23:02 1.2 °C -3.1 °C 1014.2 hPa West 3.2 km/h 16.1 km/h 73% 0.0 mm 0 W/m2
23:07 1.2 °C -2.9 °C 1014.2 hPa West 6.4 km/h 14.5 km/h 74% 0.0 mm 0 W/m2
23:12 1.2 °C -2.9 °C 1014.2 hPa WSW 4.7 km/h 14.5 km/h 74% 0.0 mm 0 W/m2
23:17 1.1 °C -3 °C 1014.2 hPa WNW 17.7 km/h 17.7 km/h 74% 0.0 mm 0 W/m2
23:22 1.1 °C -3 °C 1014.2 hPa WNW 4.7 km/h 20.9 km/h 74% 0.0 mm 0 W/m2
23:27 1 °C -3.1 °C 1014.2 hPa WNW 11.1 km/h 16.1 km/h 74% 0.0 mm 0 W/m2
23:32 1 °C -3.1 °C 1014.2 hPa WNW 6.4 km/h 20.9 km/h 74% 0.0 mm 0 W/m2
23:37 0.9 °C -3.2 °C 1014.2 hPa NW 4.7 km/h 6.4 km/h 74% 0.0 mm 0 W/m2
23:42 0.9 °C -3.2 °C 1014.6 hPa West 9.7 km/h 9.7 km/h 74% 0.0 mm 0 W/m2
23:47 0.8 °C -3.1 °C 1014.6 hPa West 3.2 km/h 12.9 km/h 75% 0.0 mm 0 W/m2
23:52 0.8 °C -3.1 °C 1014.6 hPa WNW 3.2 km/h 9.7 km/h 75% 0.0 mm 0 W/m2
23:57 0.8 °C -3.1 °C 1014.6 hPa WSW 6.4 km/h 9.7 km/h 75% 0.0 mm 0 W/m2
Juneau County Weather
Compliments of Weather Underground - 2 mb